Location: Arleux
(50.3632°N, 2.8721°E)
Time: 06:41:44
(UTC+00:00)

Cosmos 332 Rocket - Pass Details

Date: 15 December 2019
Orbit: 683 x 703 km, 74.0° (Epoch: 17 January)

Event Time Altitude Azimuth Distance (km) Brightness Sun altitude
Rises 05:49:52 0° 211° (SSW) 3,081 7.0 -16.7°
Reaches altitude 10° 05:52:12 10° 214° (SSW) 2,167 6.2 -16.4°
Maximum altitude 05:57:04 66° 297° (WNW) 768 3.7 -15.6°
Drops below altitude 10° 06:01:57 10° 20° (NNE) 2,175 6.4 -14.9°
Sets 06:04:18 0° 23° (NNE) 3,094 7.2 -14.5°
